Showing default

HJS-6B, 63429

Orbit data source: Space-Track

HJS-6B, 63429 is a payload satellite owned by Zhongguo Xingwang (CN) in LEO that was launched on Tue, 01 Apr 2025 UTC via a CHANG ZHENG 2D launch vehicle from the Jiuquan Satellite Launch Center, China (JSC). Payload-class satellites include a variety of spacecraft equipped with specific instruments for various scientific and technological missions. These include communications satellites like Starlink; space stations such as the ISS; scientific satellites like the Hubble; Earth observation satellites from companies like Planet Labs, Umbra, and HawkEye 360; GPS; miniature CubeSats for education and research; and military/defense satellites.

Loading next visibility...
Identifier
63429, 2025-067B
Orbit
LEO
Country
Flag of CNCN / PRC
Related business
Manufacturer
YINNT
Mission
Operational Civil Communications
Bus & Motor
Unknown
Mass
~300 kg wet, ~300 kg dry
Launch date (UTC)
2025-04-01 (1 year ago)
Launch vehicle
CHANG ZHENG 2D
Launch site
Jiuquan Satellite Launch Center, China (JSC)
Object type
Payload
Rocket body
Debris
Shape & HBR
Box + 2 Pan, 1.1 m
Radar Cross Section
2.320 m², Large (>1 m²)

Expand to show TLE details & history
Last TLE update: 16 hours ago

TLE from 16 hours ago
0 HJS-6B
1 63429U 25067B   26171.29184855  .00003023  00000-0  15291-3 0  9992
2 63429  54.9964  14.0289 0007580   9.0186 351.0968 15.20083022 68415
Epoch: 2026-06-20T07:00Z
TLE epoch observation values (Epoch: 2026-06-20T07:00:15.714Z)
Latitude
-0.00008°
Longitude
0.4548°
Altitude
501.525 km
Speed
7.618 km/s
True Right ascension
00h 56m 06s
True Declination
0° 00' 00"
Sunlit
Object was in daylight at epoch
Visualization orbit readout
Latitude
Unknown
Longitude
Unknown
Altitude
Unknown
Speed
Unknown
Apparent Right ascension
Unknown
Apparent Declination
Unknown
Sunlit
N/A
Visualization observer readout
Local Sidereal Time
10:18:49
Azimuth
Unknown
Elevation
Unknown
Doppler factor
Unknown
Orbital elements
Apogee altitude
510.771 km
Perigee altitude
500.335 km
Semi-major axis
6,883.69 km
Eccentricity
0.00076
Inclination
54.9964°
RAAN
14.0289°
Arg. of periapsis
9.0186°
True anomaly
351.08334°
Mean anomaly
351.0968°
Eccentric anomaly
351.09007°
Mean motion
3.80024 °/min
Orbital period
94.73 mins
BSTAR
0.00015291
Loading maneuver chart data...
Computing Atmospheric mass density...
Loading historical data...
Loading historical data...
Loading historical data...
Loading historical data...
Loading historical data...
Loading historical data...
Loading historical data...
Other satellites on launch #67 in the year 2025 (2025-04-01 UTC)

Documentation

Showing up to 5 results
|